Theta_e
310 310 310 310 309 309 309 309 309 309 309 308 307 307 307 308 309 316 319 316 315 314 315 316 316 317 318 321 320 320 322 320 321 320 320 318 318 318 318 317 316 317 317 318 319
310 310 310 310 310 310 309 310 312 313 312 311 309 308 306 306 309 316 317 315 312 312 316 316 317 318 319 320 321 320 323 322 318 318 316 315 315 314 316 315 314 315 315 318 318
309 309 310 312 312 312 312 314 315 316 315 315 314 310 308 306 319 318 315 312 311 312 316 316 316 318 318 319 320 321 320 318 317 317 317 316 315 314 315 315 315 314 314 316 317
310 310 313 315 317 317 316 317 318 318 318 317 316 314 308 311 316 314 314 314 311 313 315 315 316 318 318 318 319 318 319 318 319 318 318 317 315 315 314 315 315 314 314 315 313
312 312 314 317 318 319 319 319 320 319 319 318 317 314 309 317 315 315 311 313 312 314 314 316 316 317 317 317 316 317 318 317 317 316 316 316 315 315 314 314 314 314 314 314 314
313 314 315 318 319 320 320 321 320 320 319 318 317 312 314 316 314 315 312 312 314 314 315 315 316 315 316 315 315 316 315 315 315 315 315 315 315 315 314 313 313 313 313 312 312
314 315 317 319 320 320 321 321 321 320 319 317 314 310 315 316 314 315 312 315 314 314 315 315 315 315 316 316 314 315 314 314 314 314 315 313 314 314 313 313 313 312 312 313 313
315 315 317 319 320 321 321 321 321 319 316 313 310 313 315 312 313 311 313 313 313 314 314 313 314 315 315 315 316 315 314 315 316 315 314 313 314 314 314 313 313 313 312 311 312
315 316 317 319 321 321 321 321 320 316 312 309 313 316 315 309 312 312 312 312 313 312 312 311 314 315 315 315 313 313 314 316 318 315 314 313 314 315 314 313 314 312 311 312 313
316 317 318 319 321 321 322 321 316 311 316 315 314 312 311 313 312 311 310 312 312 313 313 313 313 314 313 312 314 317 316 317 317 317 316 315 314 314 313 312 312 311 312 313 311
317 317 318 320 320 321 322 317 317 316 313 318 317 316 312 311 310 311 310 311 312 313 314 313 313 314 314 313 314 315 316 316 316 316 315 315 314 313 313 313 313 312 313 311 310
318 319 319 320 321 322 321 319 313 311 318 319 319 318 312 312 314 312 310 312 313 314 313 314 314 315 315 316 316 315 315 315 316 316 314 313 313 313 313 313 313 313 312 310 308
318 319 319 320 322 321 319 316 312 311 318 322 316 316 314 311 317 316 310 312 314 315 315 315 317 317 317 316 316 315 316 317 316 314 313 313 314 314 316 315 313 312 309 308 307
319 319 320 321 321 323 319 317 315 312 324 324 316 312 310 310 314 310 310 312 316 317 317 318 314 314 316 317 316 316 313 312 313 314 315 312 314 314 314 314 312 310 308 306 305
320 320 320 320 323 322 314 315 313 311 333 316 312 310 310 311 311 310 308 311 315 315 314 318 313 313 314 314 313 315 312 312 312 312 313 314 314 313 315 313 310 308 307 305 304
321 321 321 320 321 321 316 311 311 324 330 314 312 313 311 310 310 310 310 309 310 313 312 313 309 310 312 312 311 311 311 312 312 313 316 314 314 316 313 312 309 307 307 305 303
322 321 321 320 320 321 317 316 325 330 322 316 313 312 313 312 312 312 311 311 313 314 314 314 313 311 311 313 311 311 313 317 320 317 319 316 317 315 316 312 309 308 306 303 301
317 319 318 320 320 319 317 322 324 326 325 318 314 317 315 316 317 313 315 316 313 315 316 319 320 313 311 314 316 312 315 318 321 321 319 314 317 317 310 310 309 307 304 301 299
318 318 318 319 316 318 320 322 324 322 322 326 321 319 320 320 321 318 317 319 317 314 318 316 316 312 311 313 313 315 315 314 315 309 313 314 314 314 311 310 308 305 302 300 299
315 316 317 318 317 317 320 318 321 320 319 319 323 324 327 325 323 321 320 315 314 312 312 314 313 311 310 310 310 311 310 315 314 315 311 312 312 312 312 310 306 303 301 299 298
310 313 312 316 315 318 320 318 319 318 318 319 319 321 323 321 321 319 317 314 313 311 311 312 312 311 312 313 313 311 311 311 312 313 315 315 312 310 306 304 302 301 300 298 297
307 312 308 314 318 318 320 318 317 318 316 318 318 319 320 319 317 318 319 314 312 313 313 313 316 317 315 312 311 311 312 313 316 315 311 313 313 306 303 302 300 299 299 299 298
309 311 308 313 318 319 317 316 316 316 316 317 318 317 315 315 315 313 313 312 312 314 315 315 314 313 309 311 313 313 312 312 312 313 315 316 314 310 306 300 298 297 295 294 292
308 310 311 310 314 315 317 316 314 313 313 315 315 313 314 313 312 312 310 311 307 306 307 311 314 310 310 310 311 311 310 309 309 311 311 311 310 306 306 303 296 293 293 291 290
306 309 308 310 311 313 312 312 313 314 311 310 311 311 311 311 309 310 310 309 306 303 304 309 312 311 311 311 306 306 305 305 305 304 306 304 304 303 302 299 293 292 291 290 290
306 305 303 306 308 310 311 311 311 310 310 311 311 310 310 310 310 309 306 306 307 301 303 301 303 302 301 302 301 302 302 303 303 303 303 302 302 299 292 292 292 290 290 290 289
297 297 300 305 305 309 310 309 310 309 303 303 306 307 306 305 302 300 300 300 301 302 301 301 299 296 297 300 297 296 298 298 298 298 298 298 296 293 293 292 291 290 289 289 289
Wind_Speed
4 4 5 5 6 6 7 8 9 10 10 11 12 13 14 15 17 10 6 5 5 9 6 4 4 4 4 3 2 2 3 5 8 5 1 7 2 2 2 3 6 6 4 3 10
5 6 6 6 7 7 8 9 10 11 11 11 12 13 14 16 16 12 10 9 8 7 8 8 6 6 4 3 2 2 3 5 6 6 7 9 7 8 5 8 11 6 12 18 11
7 6 5 5 7 8 9 10 12 12 12 13 13 12 12 13 6 2 2 4 6 10 5 8 9 3 7 5 5 5 4 6 9 5 7 6 8 7 7 9 10 10 10 3 11
7 6 4 6 7 9 10 12 14 14 14 14 13 12 9 4 5 0 1 2 5 11 4 4 5 3 5 6 9 7 8 9 6 4 3 5 9 8 10 18 10 11 9 7 9
6 6 5 6 7 10 11 13 15 16 16 15 13 9 4 4 5 4 2 3 8 9 9 7 7 6 6 6 6 6 9 10 6 7 7 8 9 9 14 17 13 13 9 7 7
8 7 6 6 8 9 11 14 15 16 16 15 13 6 2 7 3 3 3 4 5 8 9 10 5 4 6 6 6 7 8 9 9 13 8 9 9 5 10 8 10 9 8 9 10
9 8 6 7 8 10 12 15 16 16 15 13 10 3 5 10 3 3 2 2 5 7 9 8 5 1 5 6 6 5 7 10 16 10 5 6 8 8 15 8 9 9 9 9 9
10 9 8 8 9 11 13 16 16 15 12 10 4 3 6 6 3 2 3 1 3 4 3 3 1 5 3 5 4 5 6 4 2 5 2 6 7 11 9 9 14 11 10 11 9
12 10 10 9 9 11 14 16 16 12 8 4 1 2 5 1 2 2 3 2 4 3 1 1 2 3 3 3 5 7 5 7 7 8 6 6 7 8 11 10 21 10 9 8 7
12 11 10 10 10 11 14 15 13 9 4 2 5 2 4 2 3 3 2 6 2 5 3 4 4 3 3 5 5 5 7 8 7 7 10 6 9 9 12 11 15 8 8 6 8
13 12 11 10 10 10 14 5 3 2 5 7 1 3 4 4 5 4 4 5 3 4 5 6 4 7 11 11 8 5 7 9 8 9 8 9 9 9 21 14 12 9 5 9 17
14 13 11 9 8 9 8 5 3 1 6 11 14 5 4 3 2 7 9 7 5 7 8 2 6 12 9 9 6 7 10 11 7 5 5 8 11 17 21 16 8 3 7 13 13
16 14 11 9 8 10 5 3 2 1 4 5 2 2 2 6 4 4 9 4 5 7 8 10 7 9 5 6 9 8 8 8 10 6 5 6 7 8 7 6 7 9 18 18 17
18 14 11 7 6 4 3 7 3 1 4 6 5 3 4 2 3 3 2 2 5 6 9 10 1 2 7 7 5 9 0 2 4 4 3 7 5 5 11 2 9 17 17 15 14
20 16 13 12 2 3 2 4 3 1 5 5 4 4 3 3 4 2 0 2 5 6 2 2 5 3 4 5 6 2 1 3 6 5 5 6 2 6 2 9 12 13 15 14 11
22 18 15 15 16 6 6 4 4 3 9 3 5 6 5 5 4 4 2 3 2 3 6 10 2 3 4 2 4 5 3 7 6 3 3 10 8 4 3 7 8 13 13 12 11
22 18 20 16 4 17 10 1 3 6 2 5 4 5 7 6 7 6 5 5 4 4 5 5 12 4 3 2 3 2 3 4 2 1 5 5 5 5 5 7 14 16 12 10 9
5 2 10 10 7 9 7 1 6 1 4 2 2 5 6 8 4 7 6 5 10 5 3 2 2 10 6 6 2 6 4 4 6 2 5 8 5 4 10 15 15 14 12 10 8
13 8 6 8 6 8 2 6 4 6 1 3 4 4 7 5 2 6 9 7 3 5 4 3 2 4 4 2 2 3 3 2 3 2 1 5 6 5 14 11 11 11 10 8 7
8 6 5 11 15 10 3 5 3 6 6 4 1 6 5 3 2 6 8 3 5 3 5 2 5 6 2 3 1 1 2 2 1 3 5 4 2 5 7 10 8 8 7 7 6
5 2 5 10 15 2 2 5 5 8 2 2 5 7 5 2 8 4 3 3 5 6 5 3 3 3 4 4 3 0 1 3 1 4 5 9 4 5 12 9 7 5 5 5 5
4 2 7 14 5 3 8 6 4 5 3 5 4 2 3 3 1 3 4 10 4 3 2 2 3 4 6 8 7 5 8 8 6 6 4 7 15 12 13 8 6 4 3 3 2
2 2 5 7 4 5 4 4 7 5 5 7 10 7 4 8 4 8 7 4 9 4 2 2 2 4 7 4 4 5 3 2 6 1 10 8 8 5 8 8 5 5 3 4 6
2 3 2 2 3 9 9 8 5 7 4 3 3 8 8 9 11 3 5 3 4 4 5 4 3 4 7 6 3 4 6 9 5 4 8 12 14 19 16 13 4 4 4 4 5
2 4 3 5 10 11 8 4 13 10 6 4 5 14 10 6 7 14 9 5 6 3 3 2 4 4 9 8 3 7 16 17 14 17 11 24 19 21 16 8 4 4 6 6 6
2 2 1 3 3 14 12 11 12 6 8 5 9 4 4 8 3 2 4 2 2 2 3 3 2 3 7 5 8 13 18 11 14 16 16 17 21 10 5 5 2 7 7 7 7
1 1 1 3 3 5 12 15 8 7 2 3 2 5 3 3 7 5 5 2 2 4 5 6 3 3 6 4 5 9 14 16 13 15 9 13 5 2 1 3 1 4 5 8 9
Wind_Direction
331 334 338 339 337 338 339 341 340 337 335 330 326 322 319 318 316 312 255 243 214 239 181 155 200 220 244 229 283 302 293 277 290 310 214 133 186 3 159 269 279 215 237 165 166
307 313 318 320 326 330 331 334 333 331 329 327 324 321 321 321 317 261 254 254 254 197 164 186 199 190 261 212 176 245 243 267 327 350 338 338 350 333 303 302 279 282 245 222 184
298 304 314 326 329 328 329 329 329 327 324 323 322 320 321 325 283 78 220 215 197 180 197 236 287 260 245 255 208 211 234 299 321 27 16 327 316 284 306 264 255 279 317 320 222
296 305 313 324 331 332 328 325 325 323 320 318 317 316 318 335 296 52 205 186 186 174 239 220 238 210 228 247 214 245 263 273 270 342 347 297 314 299 282 262 280 277 283 274 276
290 294 299 310 321 328 324 325 324 321 317 315 313 311 316 229 258 295 273 221 184 182 221 227 237 230 250 259 321 274 251 278 320 313 267 278 268 266 275 276 279 271 270 285 293
280 287 292 301 313 321 319 322 320 317 314 311 310 303 263 248 273 273 265 183 184 201 219 241 252 21 310 279 265 316 338 294 274 264 262 268 282 296 270 271 282 298 279 264 246
278 281 281 293 306 314 315 318 317 315 312 309 305 224 258 249 246 285 150 154 208 225 254 245 303 296 344 302 11 339 299 281 264 246 202 84 293 229 256 292 296 291 289 311 313
274 277 281 288 300 310 314 317 315 312 313 317 302 138 256 232 202 218 216 211 214 204 250 352 18 283 269 340 306 255 257 303 162 87 116 121 273 292 348 352 301 288 312 296 293
270 271 277 285 298 309 313 316 311 302 307 333 23 227 260 109 115 195 190 254 154 154 124 134 193 234 168 225 275 228 252 251 291 197 131 175 263 276 275 278 278 298 294 300 313
261 268 275 285 298 310 314 312 300 293 306 307 271 273 191 131 123 139 186 158 176 152 171 203 210 211 210 209 226 276 300 303 302 316 321 265 254 301 297 269 282 300 301 322 44
251 258 266 281 299 317 329 332 233 191 231 224 72 277 132 130 154 174 152 161 197 216 208 195 214 207 226 227 249 320 288 287 284 293 293 284 307 287 275 288 287 294 284 76 70
244 252 263 277 294 314 309 281 86 183 299 253 251 271 167 166 239 159 161 184 187 211 215 128 228 240 272 299 296 301 293 283 272 293 339 298 291 277 276 272 255 84 57 76 76
238 244 251 273 293 291 237 258 230 68 254 244 210 237 117 178 234 158 179 198 196 218 232 221 243 316 284 276 278 257 262 297 300 340 262 288 267 261 284 255 118 96 86 71 63
237 235 244 255 279 240 226 221 196 144 274 209 200 162 141 229 216 76 314 316 226 237 237 256 169 317 282 250 257 289 184 25 323 354 265 40 285 294 277 24 105 84 75 70 66
232 231 228 215 240 223 107 168 154 85 276 96 142 132 103 207 127 104 49 175 248 194 245 257 140 168 203 217 187 228 157 236 239 238 312 238 241 260 113 106 91 86 82 77 72
229 227 224 223 234 218 183 133 114 126 240 161 133 170 166 177 150 131 184 246 16 296 227 256 39 259 240 134 189 74 283 252 236 209 253 235 181 292 71 135 102 93 85 83 74
229 231 218 215 186 209 163 127 159 218 202 157 184 166 216 164 160 188 167 189 176 176 203 209 214 205 212 199 110 130 293 312 334 181 220 83 360 247 285 102 132 118 106 95 87
133 131 161 176 125 150 116 102 231 294 299 51 110 196 195 154 201 200 178 226 217 245 305 268 305 169 173 220 115 183 203 178 240 236 295 350 270 232 96 92 95 94 93 84 71
171 157 159 188 162 161 147 206 216 211 350 16 24 228 199 187 66 182 217 241 55 175 206 349 204 112 189 47 101 21 184 336 319 85 353 200 243 92 111 97 87 82 74 71 65
137 143 170 201 183 147 188 209 252 304 28 16 313 197 224 263 264 191 230 78 107 97 74 24 310 254 55 83 52 160 1 323 302 277 234 249 279 252 146 110 75 56 61 56 51
105 94 176 182 162 186 224 216 196 235 292 254 254 252 251 291 264 250 327 126 135 173 139 77 182 241 344 191 205 48 216 211 241 235 263 283 265 89 95 85 83 59 37 43 27
124 172 176 166 203 192 204 180 164 172 151 188 186 149 257 90 187 42 288 336 8 83 168 178 86 267 258 306 312 267 268 276 246 251 241 260 265 89 112 110 107 75 49 19 42
187 185 186 181 238 201 153 162 204 177 195 188 193 192 149 195 206 204 237 47 10 73 50 48 107 292 321 247 54 48 335 311 4 176 250 262 259 2 138 114 94 71 39 360 24
135 224 175 217 226 236 216 199 210 202 195 209 237 177 168 224 221 215 182 97 74 87 43 19 157 191 239 255 87 286 285 284 308 272 293 265 290 297 298 319 64 94 75 38 355
217 222 204 198 216 215 218 220 220 212 203 190 237 226 223 216 235 240 236 146 78 96 62 98 247 202 263 287 311 261 264 274 269 264 259 277 279 274 290 313 39 31 36 11 353
207 194 266 314 198 201 216 216 221 212 169 204 222 175 228 229 180 97 97 104 137 45 103 1 257 69 277 269 267 277 267 264 258 256 256 266 268 313 59 70 46 44 14 334 311
172 21 316 175 180 203 214 219 215 191 51 43 59 127 162 71 93 84 41 54 91 142 149 151 166 125 262 83 27 295 257 237 246 252 260 262 247 315 191 222 18 13 310 308 312